{"data":{"norad_id":58836,"epoch":"2026-09-20T12:40:46.136928Z","epoch_age_seconds":150064,"freshness":"FRESH","line1":"1 58836U 24017L   26263.52831177  .00010001  00000+0  30698-3 0  9997","line2":"2 58836  53.1621  17.4185 0001380  78.0556 282.0602 15.34375708150020","mean_motion":15.34375708,"eccentricity":0.000138,"inclination_deg":53.1621,"raan_deg":17.4185,"arg_perigee_deg":78.0556,"mean_anomaly_deg":282.0602,"bstar":0.00030698,"rev_number":15002,"period_min":93.849243864593,"perigee_km":461.83139618596,"apogee_km":463.71948801998,"semimajor_km":6840.912442103,"source":"CELESTRAK","updated_at":"2026-09-21T09:00:33.984619Z"}}